User: anonymous   Login
Location: Lake Superior Provincial Park
(47.3335°N, 84.6162°W)
Time: 17:42:13
(UTC-05:00)
Language:

Cosmos 2333 Rocket - Orbit

View from above orbital plane
View from above orbital plane
View from above satellite
View from above satellite

Ground track
Ground track

The orbit data is extracted from the following two-line orbital elements,

1 24298U 96051B   15062.50177895 -.00000167  00000-0 -63938-4 0  9991
2 24298 070.8521 025.7945 0016455 337.5231 160.9700 14.12435547953687
Epoch (UTC): 03 March 2015 12:02:33
Eccentricity: 0.0016455
inclination: 70.8521°
perigee height: 839 km
apogee height: 863 km
right ascension of ascending node: 25.7945°
argument of perigee: 337.5231°
revolutions per day: 14.12435547
mean anomaly at epoch: 160.9700°
orbit number at epoch: 95368

The dashed part of the orbit path shows where the satellite is in the earth's shadow,  

DLR